TimeCDT,TemperatureF,Dew PointF,Humidity,Sea Level PressureIn,VisibilityMPH,Wind Direction,Wind SpeedMPH,Gust SpeedMPH,PrecipitationIn,Events,Conditions,WindDirDegrees,DateUTC
12:15 AM,78.8,71.6,78,30.01,10.0,South,8.1,-,N/A,,Clear,190,2014-08-21 05:15:00
12:35 AM,77.0,71.6,83,30.01,10.0,South,8.1,-,N/A,,Clear,190,2014-08-21 05:35:00
12:55 AM,77.0,71.6,83,30.01,10.0,SSW,8.1,-,N/A,,Clear,200,2014-08-21 05:55:00
1:15 AM,77.0,71.6,83,30.00,10.0,South,6.9,-,N/A,,Clear,190,2014-08-21 06:15:00
1:35 AM,75.2,71.6,89,30.00,10.0,South,6.9,-,N/A,,Clear,190,2014-08-21 06:35:00
1:55 AM,75.2,71.6,89,30.00,7.0,South,6.9,-,N/A,,Clear,170,2014-08-21 06:55:00
2:15 AM,75.2,71.6,89,30.00,10.0,South,6.9,-,N/A,,Clear,190,2014-08-21 07:15:00
2:35 AM,75.2,71.6,89,30.01,10.0,SSW,6.9,-,N/A,,Clear,200,2014-08-21 07:35:00
2:55 AM,75.2,71.6,89,30.01,10.0,South,4.6,-,N/A,,Clear,180,2014-08-21 07:55:00
3:15 AM,73.4,71.6,94,30.01,9.0,South,5.8,-,N/A,,Clear,170,2014-08-21 08:15:00
3:35 AM,73.4,71.6,94,30.01,9.0,South,6.9,-,N/A,,Clear,190,2014-08-21 08:35:00
3:55 AM,75.2,71.6,89,30.01,10.0,SSW,6.9,-,N/A,,Clear,200,2014-08-21 08:55:00
4:15 AM,73.4,71.6,94,30.02,9.0,SSW,5.8,-,N/A,,Clear,200,2014-08-21 09:15:00
4:35 AM,75.2,71.6,89,30.02,10.0,South,6.9,-,N/A,,Clear,190,2014-08-21 09:35:00
4:55 AM,75.2,71.6,89,30.02,10.0,South,6.9,-,N/A,,Clear,190,2014-08-21 09:55:00
5:15 AM,75.2,71.6,89,30.03,10.0,South,6.9,-,N/A,,Clear,190,2014-08-21 10:15:00
5:35 AM,75.2,71.6,89,30.03,10.0,SSW,8.1,-,N/A,,Clear,200,2014-08-21 10:35:00
5:55 AM,75.2,69.8,83,30.03,10.0,SSW,6.9,-,N/A,,Clear,200,2014-08-21 10:55:00
6:15 AM,73.4,69.8,88,30.04,10.0,South,6.9,-,N/A,,Clear,190,2014-08-21 11:15:00
6:35 AM,73.4,69.8,88,30.04,10.0,South,8.1,-,N/A,,Clear,190,2014-08-21 11:35:00
6:55 AM,73.4,69.8,88,30.05,10.0,South,9.2,-,N/A,,Clear,180,2014-08-21 11:55:00
7:15 AM,75.2,69.8,83,30.05,10.0,South,9.2,-,N/A,,Clear,180,2014-08-21 12:15:00
7:35 AM,75.2,71.6,89,30.05,10.0,South,9.2,-,N/A,,Clear,180,2014-08-21 12:35:00
7:55 AM,75.2,71.6,89,30.05,10.0,South,10.4,-,N/A,,Clear,180,2014-08-21 12:55:00
8:15 AM,77.0,71.6,83,30.06,10.0,South,8.1,-,N/A,,Clear,190,2014-08-21 13:15:00
8:35 AM,78.8,71.6,78,30.06,10.0,South,9.2,-,N/A,,Clear,190,2014-08-21 13:35:00
8:55 AM,80.6,71.6,74,30.06,10.0,South,11.5,-,N/A,,Clear,190,2014-08-21 13:55:00
9:15 AM,80.6,71.6,74,30.05,10.0,SSW,10.4,16.1,N/A,,Clear,200,2014-08-21 14:15:00
9:35 AM,82.4,71.6,70,30.06,10.0,SW,10.4,-,N/A,,Clear,230,2014-08-21 14:35:00
9:55 AM,82.4,71.6,70,30.06,10.0,SW,10.4,-,N/A,,Clear,220,2014-08-21 14:55:00
10:15 AM,84.2,71.6,66,30.06,10.0,SSW,10.4,-,N/A,,Clear,210,2014-08-21 15:15:00
10:35 AM,86.0,71.6,62,30.06,10.0,SSW,12.7,-,N/A,,Clear,200,2014-08-21 15:35:00
10:55 AM,87.8,73.4,62,30.06,10.0,SSW,12.7,17.3,N/A,,Clear,210,2014-08-21 15:55:00
11:15 AM,87.8,71.6,58,30.06,10.0,SSW,16.1,-,N/A,,Clear,210,2014-08-21 16:15:00
11:35 AM,89.6,71.6,55,30.06,10.0,SSW,16.1,-,N/A,,Clear,210,2014-08-21 16:35:00
11:55 AM,89.6,71.6,55,30.05,10.0,SSW,15.0,-,N/A,,Clear,200,2014-08-21 16:55:00
12:15 PM,89.6,71.6,55,30.05,10.0,SSW,12.7,21.9,N/A,,Clear,210,2014-08-21 17:15:00
12:35 PM,89.6,71.6,55,30.05,10.0,SSW,10.4,23.0,N/A,,Clear,200,2014-08-21 17:35:00
12:55 PM,91.4,71.6,52,30.04,10.0,SW,15.0,-,N/A,,Clear,220,2014-08-21 17:55:00
1:15 PM,91.4,69.8,49,30.03,10.0,SSW,11.5,20.7,N/A,,Clear,200,2014-08-21 18:15:00
1:35 PM,93.2,69.8,46,30.03,10.0,SSW,17.3,21.9,N/A,,Clear,210,2014-08-21 18:35:00
1:55 PM,93.2,68.0,44,30.02,10.0,SSW,13.8,20.7,N/A,,Clear,200,2014-08-21 18:55:00
2:15 PM,93.2,71.6,49,30.02,10.0,SSW,16.1,24.2,N/A,,Clear,200,2014-08-21 19:15:00
2:35 PM,93.2,69.8,46,30.01,10.0,South,13.8,23.0,N/A,,Clear,180,2014-08-21 19:35:00
2:55 PM,93.2,71.6,49,30.00,10.0,SSW,11.5,-,N/A,,Clear,200,2014-08-21 19:55:00
3:15 PM,93.2,71.6,49,29.99,10.0,South,17.3,-,N/A,,Clear,190,2014-08-21 20:15:00
3:35 PM,93.2,69.8,46,29.99,10.0,South,16.1,20.7,N/A,,Clear,180,2014-08-21 20:35:00
3:55 PM,93.2,71.6,49,29.98,10.0,South,17.3,23.0,N/A,,Clear,180,2014-08-21 20:55:00
4:15 PM,93.2,69.8,46,29.98,10.0,South,17.3,-,N/A,,Clear,180,2014-08-21 21:15:00
4:35 PM,93.2,69.8,46,29.97,10.0,South,17.3,-,N/A,,Clear,180,2014-08-21 21:35:00
4:55 PM,93.2,69.8,46,29.97,10.0,South,19.6,-,N/A,,Clear,180,2014-08-21 21:55:00
5:15 PM,91.4,69.8,49,29.97,10.0,South,17.3,21.9,N/A,,Clear,180,2014-08-21 22:15:00
5:35 PM,91.4,69.8,49,29.96,10.0,South,17.3,21.9,N/A,,Clear,180,2014-08-21 22:35:00
5:55 PM,91.4,69.8,49,29.96,10.0,South,15.0,-,N/A,,Clear,180,2014-08-21 22:55:00
6:15 PM,91.4,69.8,49,29.96,10.0,South,18.4,24.2,N/A,,Clear,190,2014-08-21 23:15:00
6:35 PM,89.6,71.6,55,29.96,10.0,South,17.3,20.7,N/A,,Clear,180,2014-08-21 23:35:00
6:55 PM,89.6,69.8,52,29.96,10.0,South,15.0,-,N/A,,Clear,180,2014-08-21 23:55:00
7:15 PM,87.8,69.8,55,29.97,10.0,South,16.1,-,N/A,,Clear,190,2014-08-22 00:15:00
7:35 PM,86.0,69.8,58,29.97,10.0,South,16.1,-,N/A,,Clear,190,2014-08-22 00:35:00
7:55 PM,84.2,68.0,58,29.98,10.0,South,12.7,-,N/A,,Clear,190,2014-08-22 00:55:00
8:15 PM,84.2,66.2,55,29.98,10.0,South,15.0,-,N/A,,Clear,190,2014-08-22 01:15:00
8:35 PM,84.2,66.2,55,29.99,10.0,South,16.1,-,N/A,,Clear,190,2014-08-22 01:35:00
8:55 PM,82.4,64.4,54,30.00,10.0,South,15.0,-,N/A,,Clear,190,2014-08-22 01:55:00
9:15 PM,82.4,69.8,66,30.00,10.0,SSW,11.5,-,N/A,,Clear,200,2014-08-22 02:15:00
9:35 PM,80.6,71.6,74,30.00,10.0,SSW,11.5,-,N/A,,Clear,200,2014-08-22 02:35:00
9:55 PM,80.6,71.6,74,30.00,10.0,SSW,11.5,17.3,N/A,,Clear,200,2014-08-22 02:55:00
10:15 PM,80.6,71.6,74,30.01,10.0,SSW,11.5,-,N/A,,Clear,210,2014-08-22 03:15:00
10:35 PM,80.6,71.6,74,30.01,10.0,SSW,9.2,-,N/A,,Clear,210,2014-08-22 03:35:00
10:55 PM,80.6,71.6,74,30.02,10.0,SSW,8.1,-,N/A,,Clear,210,2014-08-22 03:55:00
11:15 PM,78.8,71.6,78,30.03,10.0,SW,6.9,-,N/A,,Clear,220,2014-08-22 04:15:00
11:35 PM,78.8,71.6,78,30.03,10.0,SW,4.6,-,N/A,,Clear,230,2014-08-22 04:35:00
11:55 PM,77.0,71.6,83,30.03,10.0,SSW,5.8,-,N/A,,Clear,200,2014-08-22 04:55:00